TimeCST,TemperatureF,Dew PointF,Humidity,Sea Level PressureIn,VisibilityMPH,Wind Direction,Wind SpeedMPH,Gust SpeedMPH,PrecipitationIn,Events,Conditions,WindDirDegrees,DateUTC
12:12 AM,26.6,19.4,74,30.16,10.0,North,10.4,-,N/A,,Overcast,360,2013-03-06 06:12:00
12:54 AM,25.0,19.0,78,30.22,10.0,North,9.2,-,N/A,,Overcast,350,2013-03-06 06:54:00
1:54 AM,25.0,19.0,78,30.23,10.0,North,9.2,-,N/A,,Overcast,10,2013-03-06 07:54:00
2:54 AM,25.0,19.0,78,30.24,10.0,North,9.2,-,N/A,,Overcast,350,2013-03-06 08:54:00
3:54 AM,24.1,18.0,77,30.25,10.0,NNW,6.9,-,N/A,,Overcast,340,2013-03-06 09:54:00
4:54 AM,24.1,18.0,77,30.28,10.0,NW,10.4,-,N/A,,Overcast,310,2013-03-06 10:54:00
5:54 AM,24.1,18.0,77,30.29,10.0,NNW,8.1,-,N/A,,Overcast,330,2013-03-06 11:54:00
6:54 AM,25.0,18.0,75,30.30,10.0,NNW,8.1,-,N/A,,Overcast,330,2013-03-06 12:54:00
7:54 AM,25.0,19.0,78,30.32,10.0,NW,8.1,-,N/A,,Overcast,320,2013-03-06 13:54:00
8:54 AM,25.0,19.0,78,30.34,10.0,NW,8.1,-,N/A,,Overcast,320,2013-03-06 14:54:00
9:54 AM,26.1,19.0,75,30.34,10.0,NW,12.7,-,N/A,,Overcast,320,2013-03-06 15:54:00
10:54 AM,27.0,19.9,75,30.34,10.0,NW,11.5,-,N/A,,Overcast,320,2013-03-06 16:54:00
11:54 AM,27.0,21.0,78,30.34,10.0,NW,12.7,-,N/A,,Overcast,310,2013-03-06 17:54:00
12:54 PM,28.9,19.9,69,30.33,10.0,NW,10.4,-,N/A,,Overcast,310,2013-03-06 18:54:00
1:54 PM,30.0,19.0,64,30.32,10.0,NNW,9.2,-,N/A,,Overcast,340,2013-03-06 19:54:00
2:54 PM,30.0,18.0,61,30.32,10.0,NNW,9.2,-,N/A,,Overcast,330,2013-03-06 20:54:00
3:54 PM,30.0,18.0,61,30.32,10.0,NW,11.5,-,N/A,,Mostly Cloudy,310,2013-03-06 21:54:00
4:21 PM,30.2,17.6,60,30.27,10.0,NW,10.4,-,N/A,,Scattered Clouds,320,2013-03-06 22:21:00
4:54 PM,28.0,16.0,61,30.32,10.0,NW,10.4,-,N/A,,Clear,310,2013-03-06 22:54:00
5:54 PM,25.0,14.0,63,30.33,10.0,NW,5.8,-,N/A,,Clear,310,2013-03-06 23:54:00
6:54 PM,25.0,15.1,66,30.34,10.0,Calm,Calm,-,N/A,,Clear,0,2013-03-07 00:54:00
7:54 PM,17.1,12.0,81,30.35,10.0,Calm,Calm,-,N/A,,Clear,0,2013-03-07 01:54:00
8:54 PM,14.0,10.0,84,30.36,10.0,Calm,Calm,-,N/A,,Clear,0,2013-03-07 02:54:00
9:54 PM,15.1,10.9,84,30.36,8.0,Calm,Calm,-,N/A,,Clear,0,2013-03-07 03:54:00
10:54 PM,12.0,7.0,80,30.36,10.0,Calm,Calm,-,N/A,,Clear,0,2013-03-07 04:54:00
11:34 PM,10.4,6.8,85,30.30,1.8,Calm,Calm,-,N/A,,Clear,0,2013-03-07 05:34:00
11:37 PM,10.4,6.8,85,30.30,0.8,Calm,Calm,-,N/A,,Clear,0,2013-03-07 05:37:00
11:54 PM,12.0,8.1,84,30.36,2.0,Calm,Calm,-,N/A,,Clear,0,2013-03-07 05:54:00